Weather History for Poplar Bluff, MO

Change the Weather History Date:

Sunday, January 27, 2013

  Actual Average Record
Temperature  
Mean Temperature 44 °F -  
Max Temperature 55 °F 44 °F 71 °F (1934)
Min Temperature 33 °F 22 °F -1 °F (1940)
Degree Days  
Heating Degree Days 22    
Moisture  
Dew Point 38 °F    
Average Humidity 81    
Maximum Humidity 87    
Minimum Humidity 67    
Precipitation  
Precipitation 0.06 in - - ()
Sea Level Pressure  
Sea Level Pressure 30.18 in    
Wind  
Wind Speed 5 mph (ESE)    
Max Wind Speed 10 mph    
Max Gust Speed -    
Visibility 8 miles    
Events Rain    
Averages and records for this station are not official NWS values.
T = Trace of Precipitation, MM = Missing Value Source: NWS Daily Summary

Daily Weather History Graph

Daily Weather History Graph

Search for Another Location

Airport:

Trip Planner

Search our weather history database for the weather conditions in past years. The results will help you decide how hot, cold, wet, or windy it might be!

Date:

Astronomy

Jan. 27, 2013 Rise Set
Actual Time 7:06 AM CST 5:21 PM CST
Civil Twilight 6:39 AM CST 5:49 PM CST
Nautical Twilight 6:08 AM CST 6:20 PM CST
Astronomical Twilight 5:37 AM CST 6:51 PM CST
Moon 6:13 PM CST 7:02 AM CST
Length of Visible Light 11h 09m
Length of Day
10h 14m
Full, 100% of the Moon is Illuminated
Jan 27
Full
Feb 3
Last Quarter
Feb 10
New
Feb 17
First Quarter
Feb 25
Full

Hourly Weather History & Observations

Time (CST) Temp. Windchill Dew Point Humidity Pressure Visibility Wind Dir Wind Speed Gust Speed Precip Events Conditions
12:53 AM 35.1 °F 31.0 °F 25.0 °F 67% 30.30 in 10.0 mi ENE 4.6 mph - N/A   Scattered Clouds
1:53 AM 33.1 °F 28.7 °F 25.0 °F 72% 30.30 in 10.0 mi NE 4.6 mph - N/A   Clear
2:53 AM 35.1 °F 30.1 °F 26.1 °F 70% 30.28 in 10.0 mi NE 5.8 mph - N/A   Mostly Cloudy
3:53 AM 35.1 °F 29.3 °F 27.0 °F 72% 30.27 in 10.0 mi NE 6.9 mph - N/A   Overcast
4:53 AM 36.0 °F 32.1 °F 28.9 °F 76% 30.27 in 9.0 mi NE 4.6 mph - N/A   Overcast
5:53 AM 37.0 °F 32.4 °F 28.9 °F 73% 30.26 in 9.0 mi East 5.8 mph - N/A   Overcast
6:49 AM 37.4 °F 34.9 °F 30.2 °F 75% 30.26 in 8.0 mi ENE 3.5 mph - 0.00 in Rain Light Rain
6:53 AM 37.0 °F 34.5 °F 30.0 °F 76% 30.27 in 8.0 mi ENE 3.5 mph - 0.00 in Rain Light Rain
7:53 AM 37.0 °F 32.4 °F 30.9 °F 79% 30.26 in 4.0 mi ENE 5.8 mph - 0.01 in Rain Light Rain
8:53 AM 37.9 °F - 33.1 °F 83% 30.26 in 5.0 mi Calm Calm - 0.00 in Rain Light Rain
9:53 AM 39.0 °F 34.8 °F 34.0 °F 82% 30.27 in 5.0 mi East 5.8 mph - 0.00 in Rain Light Rain
10:53 AM 39.9 °F - 35.1 °F 83% 30.26 in 4.0 mi Calm Calm - 0.01 in   Haze
11:53 AM 42.1 °F 38.4 °F 37.9 °F 85% 30.21 in 4.0 mi ESE 5.8 mph - 0.01 in Rain Light Rain
12:53 PM 44.1 °F 40.8 °F 39.9 °F 85% 30.18 in 5.0 mi SE 5.8 mph - 0.01 in   Overcast
1:53 PM 46.0 °F 43.9 °F 42.1 °F 86% 30.15 in 5.0 mi SE 4.6 mph - 0.02 in   Overcast
2:16 PM 46.4 °F 45.2 °F 42.8 °F 87% 30.12 in 4.0 mi ENE 3.5 mph - N/A   Overcast
2:53 PM 48.0 °F - 44.1 °F 86% 30.13 in 5.0 mi Calm Calm - N/A   Overcast
3:53 PM 51.1 °F - 46.0 °F 83% 30.12 in 10.0 mi SSE 4.6 mph - N/A   Overcast
4:05 PM 51.8 °F - 46.4 °F 82% 30.10 in 10.0 mi SSE 3.5 mph - N/A   Overcast
4:53 PM 51.1 °F - 46.0 °F 83% 30.11 in 10.0 mi SE 4.6 mph - N/A   Mostly Cloudy
5:53 PM 48.0 °F - 44.1 °F 86% 30.09 in 10.0 mi SE 4.6 mph - N/A   Clear
6:53 PM 50.0 °F - 46.0 °F 86% 30.07 in 10.0 mi SSE 10.4 mph - N/A   Clear
7:53 PM 51.1 °F - 46.9 °F 86% 30.07 in 10.0 mi South 6.9 mph - N/A   Clear
8:53 PM 54.0 °F - 48.9 °F 83% 30.07 in 10.0 mi South 6.9 mph - N/A   Overcast
9:53 PM 54.0 °F - 48.0 °F 80% 30.07 in 10.0 mi South 10.4 mph - N/A   Mostly Cloudy
10:53 PM 53.1 °F - 48.9 °F 86% 30.06 in 10.0 mi South 4.6 mph - 0.00 in   Overcast
11:53 PM 55.0 °F - 50.0 °F 83% 30.06 in 10.0 mi South 6.9 mph - N/A   Mostly Cloudy